EW0182 Weather Reports


Display with metric or nautical units.
time (UTC)temp
F
wind
direction
speed
MPH
gust
MPH
rain 1hr
in
rain 24hr
in
rain mn
in
humidity
%
barometer
mb
20260510093026 0 0.0 0.0 0.00 0.25 0.00 1009.8
20260510091521 0 0.0 0.0 0.00 0.25 0.00 1009.4
20260510090018 0 0.0 0.0 0.00 0.25 0.00 1009.3
20260510084512 0 0.0 0.0 0.00 0.25 0.00 1009.0
20260510083008 0 0.0 0.0 0.00 0.25 0.00 1009.0
20260510081515 50 226 0.0 0.0 0.00 0.25 0.00 96 1008.7
20260510080002 51 31 0.0 1.0 0.00 0.25 0.00 96 1008.5
20260510074601 51 134 0.0 0.0 0.00 0.33 0.00 96 1008.2
20260510073105 51 134 0.0 0.0 0.00 0.33 0.00 96 1008.0
20260510071559 51 134 0.0 0.0 0.00 0.33 0.00 96 1008.0
20260510070056 51 134 0.0 1.0 0.00 0.33 0.00 96 1007.9
20260510064558 51 152 0.0 0.0 0.00 0.41 0.00 96 1007.7
20260510063050 52 152 0.0 0.0 0.00 0.41 0.00 96 1007.3
20260510061550 53 8 0.0 3.0 0.00 0.41 0.00 96 1007.3
20260510060050 53 302 0.0 0.0 0.00 0.41 0.00 96 1007.0
20260510054547 53 142 0.0 4.0 0.00 0.44 0.00 96 1007.0
20260510053103 53 158 0.0 5.0 0.00 0.44 0.00 96 1007.3
20260510051555 53 229 0.0 0.0 0.00 0.44 0.00 96 1006.9
20260510050043 53 74 0.0 0.0 0.00 0.44 0.00 96 1006.8
20260510044554 53 221 0.0 0.0 0.00 0.46 0.00 96 1006.9
20260510043050 54 210 0.0 0.0 0.01 0.46 0.00 95 1007.0
20260510041537 54 142 0.0 0.0 0.03 0.46 0.00 95 1007.1
20260510040041 54 136 0.0 0.0 0.04 0.46 0.00 95 1007.1
20260510034535 55 224 0.0 3.0 0.04 0.48 0.46 95 1006.5
20260510033049 54 79 0.0 0.0 0.03 0.47 0.45 95 1006.7
20260510031537 55 67 0.0 0.0 0.01 0.45 0.43 95 1006.9
20260510030042 54 228 0.0 0.0 0.00 0.44 0.42 95 1007.6
20260510024532 54 229 0.0 0.0 0.00 0.46 0.42 95 1006.6
20260510023031 54 215 0.0 0.0 0.00 0.46 0.42 94 1006.2
20260510021533 54 217 0.0 2.0 0.00 0.46 0.42 94 1006.3
20260510020032 54 241 0.0 0.0 0.00 0.46 0.42 94 1006.3
20260510014535 55 219 0.0 0.0 0.00 0.49 0.42 93 1006.1
20260510013029 55 205 0.0 0.0 0.03 0.49 0.42 93 1005.7
20260510011528 55 255 0.0 0.0 0.05 0.49 0.42 93 1005.8
20260510010029 55 225 0.0 0.0 0.13 0.49 0.42 92 1005.8
20260510004528 55 190 0.0 0.0 0.21 0.52 0.42 91 1005.6
20260510003029 55 255 1.0 3.0 0.18 0.49 0.39 90 1006.4
20260510001526 56 283 0.0 5.0 0.16 0.47 0.37 88 1006.1
20260510000026 60 250 2.0 7.0 0.07 0.38 0.28 78 1006.0
20260509234535 66 252 1.0 10.0 0.00 0.31 0.21 60 1004.0
20260509233024 67 224 4.0 12.0 0.00 0.31 0.21 58 1003.5
20260509231523 67 197 2.0 16.0 0.00 0.31 0.21 58 1003.6
20260509230023 68 121 2.0 18.0 0.00 0.31 0.21 57 1003.4
20260509224521 68 255 8.0 20.0 0.00 0.31 0.21 55 1003.2
20260509223022 69 308 3.0 20.0 0.00 0.31 0.21 55 1003.3
20260509221519 69 255 4.0 17.0 0.00 0.31 0.21 54 1003.5
20260509220018 69 148 3.0 14.0 0.00 0.31 0.21 55 1003.6
20260509214517 69 163 7.0 18.0 0.00 0.31 0.21 55 1003.3
20260509213016 69 158 2.0 13.0 0.00 0.31 0.21 56 1003.5
20260509211513 69 207 7.0 14.0 0.00 0.31 0.21 55 1003.8
20260509210017 69 218 4.0 14.0 0.00 0.31 0.21 55 1004.0
20260509204510 68 162 4.0 14.0 0.00 0.33 0.21 55 1004.0
20260509203011 68 198 5.0 14.0 0.00 0.33 0.21 57 1004.3
20260509201507 69 210 4.0 18.0 0.00 0.33 0.21 56 1004.5
20260509200005 68 291 3.0 16.0 0.00 0.33 0.21 58 1004.7
20260509194503 69 162 4.0 14.0 0.00 0.33 0.21 59 1005.0
20260509193001 68 207 3.0 16.0 0.00 0.33 0.21 61 1005.3
20260509191600 68 273 6.0 16.0 0.00 0.33 0.21 60 1005.3
20260509190105 69 236 4.0 12.0 0.00 0.33 0.21 59 1005.6
20260509184607 68 193 6.0 14.0 0.00 0.34 0.21 60 1005.7
20260509183055 66 232 3.0 17.0 0.00 0.34 0.21 64 1005.6
20260509181554 66 217 6.0 17.0 0.00 0.34 0.21 62 1005.7
20260509180051 66 214 1.0 13.0 0.00 0.34 0.21 65 1005.8
20260509174548 65 204 3.0 15.0 0.00 0.34 0.21 66 1005.9
20260509173054 64 294 0.0 13.0 0.00 0.34 0.21 68 1005.7
20260509171550 63 232 1.0 17.0 0.00 0.34 0.21 71 1005.9
20260509170042 63 239 2.0 10.0 0.00 0.34 0.21 70 1006.2
20260509164541 64 250 1.0 9.0 0.00 0.34 0.21 70 1006.1
20260509163037 62 212 6.0 12.0 0.00 0.34 0.21 74 1006.2
20260509161536 61 283 2.0 12.0 0.00 0.34 0.21 79 1006.3
20260509160031 60 198 3.0 10.0 0.00 0.34 0.21 82 1006.4
20260509154529 59 105 4.0 12.0 0.00 0.34 0.21 85 1006.4
20260509153024 58 228 5.0 13.0 0.00 0.34 0.21 86 1006.2
20260509151521 57 211 4.0 8.0 0.00 0.34 0.21 89 1006.2
20260509150028 55 200 1.0 6.0 0.00 0.34 0.21 91 1006.0
20260509144518 55 252 3.0 10.0 0.00 0.34 0.21 92 1006.1
20260509143019 55 263 1.0 9.0 0.00 0.34 0.21 94 1006.2
20260509141520 54 26 0.0 3.0 0.00 0.34 0.21 95 1006.1
20260509140009 54 161 1.0 6.0 0.00 0.34 0.21 95 1005.9
20260509134507 53 221 1.0 8.0 0.00 0.34 0.21 95 1006.1
20260509133005 52 236 3.0 8.0 0.00 0.34 0.21 95 1006.2
20260509131506 52 221 0.0 6.0 0.00 0.34 0.21 95 1006.3
20260509130002 52 217 1.0 6.0 0.00 0.34 0.21 95 1006.5
20260509124501 52 239 0.0 4.0 0.00 0.34 0.21 95 1006.6
20260509123104 52 148 1.0 4.0 0.00 0.34 0.21 95 1006.6
20260509121558 51 236 2.0 7.0 0.00 0.34 0.21 96 1006.5
20260509120105 0 0.0 0.0 0.00 0.34 0.21 1006.6
20260509114549 0 0.0 0.0 0.00 0.34 0.21 1006.6
20260509113046 0 0.0 0.0 0.00 0.34 0.21 1006.4
20260509111541 0 0.0 0.0 0.00 0.34 0.21 1006.5
20260509110037 0 0.0 0.0 0.00 0.34 0.21 1006.4
20260509104536 0 0.0 0.0 0.00 0.34 0.21 1006.3
20260509103028 0 0.0 0.0 0.00 0.34 0.21 1006.1
20260509101523 0 0.0 0.0 0.00 0.34 0.21 1006.3
20260509100029 0 0.0 0.0 0.00 0.34 0.21 1006.3
20260509094520 0 0.0 0.0 0.00 0.34 0.21 1006.4